Date String (YYYY-MM-DD hh:mm:ss) UTC,Instrument flags,Ambient pressure (hPa),Sample flow (lpm),Bypass flow (lpm),Sample temperature (°C),Ambient temperature (°C),ASC tube jacket temperature (°C),LED temperature (°C),Box temperature (°C),Sample RH (%),Span deviation,Mass concentration (μg/m³),Mass concentration (μg/m³),Mass concentration (μg/m³)
DateTimeUTC,F1_M11,P_M11,Q1_M11,Q2_M11,T1_M11,T2_M11,T3_M11,T4_M11,T5_M11,U1_M11,ZSPAN_M11,X0_M11,X2_M11,X1_M11
2021-09-12 12:00:00,,0830.6,5.00,0.00,29.8,28.6,00.0,38.9,31.5,20.2,0002.1,0014.69,0007.37,0006.06
2021-09-12 12:01:00,,0830.6,4.99,0.00,29.8,28.7,00.0,38.9,31.6,20.4,0001.8,0014.44,0007.30,0006.02
2021-09-12 12:02:00,,0830.6,5.01,0.00,29.9,28.8,00.0,38.9,31.6,20.4,0002.1,0014.25,0007.26,0005.98
2021-09-12 12:03:00,,0830.6,4.99,0.00,29.9,28.9,00.0,38.9,31.7,20.1,0002.2,0013.63,0007.26,0005.97
2021-09-12 12:04:00,,0830.6,4.99,0.00,29.9,28.9,00.0,38.9,31.7,19.9,0002.1,0013.15,0007.26,0005.98
2021-09-12 12:05:00,,0830.7,5.02,0.00,29.9,29.0,00.0,39.0,31.7,19.8,0001.8,0013.19,0007.30,0006.02
2021-09-12 12:06:00,,0830.6,5.00,0.00,30.0,29.0,00.0,39.0,31.7,19.8,0001.5,0013.46,0007.38,0006.07
2021-09-12 12:07:00,,0830.6,4.99,0.00,30.0,29.1,00.0,39.0,31.7,19.7,0001.4,0013.98,0007.37,0006.11
2021-09-12 12:08:00,,0830.7,5.00,0.00,30.0,29.1,00.0,39.0,31.8,19.7,0000.9,0014.22,0007.40,0006.14
2021-09-12 12:09:00,,0830.7,5.00,0.00,30.0,29.2,00.0,39.0,31.8,19.8,0000.9,0014.72,0007.43,0006.22
2021-09-12 12:10:00,,0830.7,5.01,0.00,30.1,29.2,00.0,39.0,31.9,19.7,0001.1,0014.77,0007.50,0006.27
2021-09-12 12:11:00,,0830.8,5.00,0.00,30.1,29.2,00.0,39.1,31.9,19.9,0001.3,0014.63,0007.59,0006.31
2021-09-12 12:12:00,,0830.8,4.99,0.00,30.1,29.3,00.0,39.1,31.9,20.0,0001.8,0015.16,0007.66,0006.38
2021-09-12 12:13:00,,0830.8,4.99,0.00,30.1,29.3,00.0,39.1,32.0,20.1,0001.8,0015.35,0007.71,0006.42
2021-09-12 12:14:00,,0830.8,5.00,0.00,30.1,28.7,00.0,39.1,31.8,20.0,0001.4,0015.64,0007.75,0006.46
2021-09-12 12:15:00,,0830.7,5.00,0.00,30.0,26.7,00.0,39.1,31.2,20.0,0001.3,0015.93,0007.81,0006.48
2021-09-12 12:16:00,,0830.7,5.00,0.00,29.8,26.4,00.0,39.1,31.1,20.1,0001.6,0016.89,0007.96,0006.51
2021-09-12 12:17:00,,0830.7,5.01,0.00,29.8,26.7,00.0,39.0,31.2,20.2,0001.3,0017.64,0008.05,0006.53
2021-09-12 12:18:00,,0830.8,5.00,0.00,29.7,27.1,00.0,39.0,31.2,20.2,0001.0,0017.90,0008.17,0006.55
2021-09-12 12:19:00,,0830.7,5.00,0.00,29.7,27.5,00.0,38.9,31.3,20.3,0001.2,0017.93,0008.22,0006.57
2021-09-12 12:20:00,,0830.8,5.01,0.00,29.7,27.8,00.0,38.9,31.3,20.3,0000.9,0017.89,0008.33,0006.58
2021-09-12 12:21:00,,0830.8,4.99,0.00,29.7,28.1,00.0,38.9,31.4,20.2,0000.8,0018.27,0008.35,0006.58
2021-09-12 12:22:00,,0830.8,4.99,0.00,29.7,28.3,00.0,38.9,31.4,20.2,0000.5,0018.61,0008.36,0006.60
2021-09-12 12:23:00,,0830.8,5.00,0.00,29.8,28.4,00.0,38.9,31.5,20.2,0000.1,0018.56,0008.44,0006.60
2021-09-12 12:24:00,,0830.7,5.01,0.00,29.8,28.5,00.0,38.9,31.5,20.1,0000.1,0018.57,0008.46,0006.61
2021-09-12 12:25:00,,0830.8,5.00,0.00,29.8,28.7,00.0,38.9,31.6,20.1,0000.5,0018.65,0008.53,0006.63
2021-09-12 12:26:00,,0830.8,4.99,0.00,29.8,28.7,00.0,38.9,31.6,20.0,0000.7,0019.56,0008.51,0006.62
2021-09-12 12:27:00,,0830.8,5.01,0.00,29.9,28.8,00.0,38.9,31.6,19.9,0000.5,0019.90,0008.40,0006.60
2021-09-12 12:28:00,,0830.8,5.00,0.00,29.9,28.9,00.0,38.9,31.7,19.9,0000.7,0019.37,0008.31,0006.58
2021-09-12 12:29:00,,0830.9,4.99,0.00,29.9,29.0,00.0,38.9,31.7,19.9,0000.7,0018.61,0008.24,0006.56
2021-09-12 12:30:00,,0830.9,5.01,0.00,30.0,29.0,00.0,39.0,31.7,19.9,0000.7,0018.50,0008.28,0006.56
2021-09-12 12:31:00,,0830.9,5.00,0.00,30.0,29.1,00.0,39.0,31.7,19.9,0000.9,0018.38,0008.26,0006.56
2021-09-12 12:32:00,,0831.0,5.00,0.00,30.0,29.1,00.0,39.0,31.8,19.7,0001.0,0018.88,0008.30,0006.54
2021-09-12 12:33:00,,0830.9,5.00,0.00,30.0,29.1,00.0,39.0,31.8,19.7,0000.9,0019.24,0008.29,0006.52
2021-09-12 12:34:00,,0830.9,5.01,0.00,30.0,29.2,00.0,39.0,31.9,19.9,0000.9,0018.97,0008.24,0006.51
2021-09-12 12:35:00,,0830.9,5.00,0.00,30.1,29.2,00.0,39.1,31.9,19.9,0001.0,0020.05,0008.31,0006.51
2021-09-12 12:36:00,,0830.9,4.99,0.00,30.1,29.3,00.0,39.1,31.9,19.9,0001.0,0020.78,0008.30,0006.49
2021-09-12 12:37:00,,0831.0,5.00,0.00,30.1,29.3,00.0,39.1,31.9,19.8,0000.7,0019.74,0008.32,0006.48
2021-09-12 12:38:00,,0831.0,5.00,0.00,30.2,29.4,00.0,39.1,32.0,19.7,0000.9,0018.72,0008.32,0006.49
2021-09-12 12:39:00,,0831.0,5.00,0.00,30.2,28.9,00.0,39.1,31.8,19.7,0001.1,0019.07,0008.28,0006.48
2021-09-12 12:40:00,,0831.0,4.99,0.00,30.0,27.0,00.0,39.1,31.4,19.8,0001.2,0019.04,0008.25,0006.48
2021-09-12 12:41:00,,0831.0,5.00,0.00,29.9,26.5,00.0,39.1,31.2,20.0,0001.3,0018.88,0008.17,0006.47
2021-09-12 12:42:00,,0831.0,5.01,0.00,29.8,26.8,00.0,39.1,31.2,20.2,0001.4,0019.41,0008.13,0006.47
2021-09-12 12:43:00,,0831.0,5.00,0.00,29.8,27.2,00.0,39.0,31.3,20.3,0001.4,0018.77,0008.07,0006.48
2021-09-12 12:44:00,,0831.0,4.99,0.00,29.8,27.6,00.0,39.0,31.3,20.4,0001.5,0018.01,0008.03,0006.47
2021-09-12 12:45:00,,0831.0,5.00,0.00,29.8,27.9,00.0,39.0,31.4,20.3,0001.5,0017.85,0008.00,0006.43
2021-09-12 12:46:00,,0831.1,5.00,0.00,29.8,28.1,00.0,38.9,31.4,20.3,0001.2,0016.80,0007.90,0006.40
2021-09-12 12:47:00,,0831.1,5.01,0.00,29.8,28.3,00.0,38.9,31.5,20.4,0001.0,0015.59,0007.79,0006.37
2021-09-12 12:48:00,,0831.0,4.99,0.00,29.8,28.5,00.0,38.9,31.5,20.6,0001.2,0015.28,0007.68,0006.33
2021-09-12 12:49:00,,0831.1,5.00,0.00,29.8,28.6,00.0,38.9,31.6,20.8,0001.2,0016.10,0007.64,0006.28
2021-09-12 12:50:00,,0831.0,5.00,0.00,29.9,28.7,00.0,38.9,31.6,21.2,0001.2,0016.16,0007.59,0006.20
2021-09-12 12:51:00,,0831.0,4.99,0.00,29.9,28.8,00.0,39.0,31.7,21.5,0001.4,0016.27,0007.46,0006.08
2021-09-12 12:52:00,,0831.0,5.00,0.00,29.9,28.9,00.0,39.0,31.7,21.8,0001.4,0016.06,0007.26,0005.92
2021-09-12 12:53:00,,0831.1,4.99,0.00,29.9,28.9,00.0,39.0,31.7,21.8,0001.4,0015.01,0007.03,0005.73
2021-09-12 12:54:00,,0831.0,5.00,0.00,30.0,29.0,00.0,39.0,31.8,21.9,0001.4,0014.22,0006.80,0005.56
2021-09-12 12:55:00,,0831.0,5.01,0.00,30.0,29.0,00.0,39.0,31.7,21.9,0001.4,0013.75,0006.59,0005.39
2021-09-12 12:56:00,,0831.0,4.99,0.00,30.0,29.1,00.0,39.0,31.8,21.9,0001.5,0013.20,0006.35,0005.22
2021-09-12 12:57:00,,0831.0,5.00,0.00,30.0,29.1,00.0,39.0,31.8,21.9,0002.1,0012.84,0006.15,0005.04
2021-09-12 12:58:00,,0831.0,4.99,0.00,30.0,29.1,00.0,39.1,31.8,21.9,0002.3,0012.39,0005.95,0004.87
2021-09-12 12:59:00,,0831.0,5.00,0.00,30.1,29.2,00.0,39.1,31.9,22.0,0002.3,0012.05,0005.74,0004.71
